Location: Unspecified
(31.1803°N, 0.0000°E)
Time: 07:58:06
(UTC+00:00)

Explorer 7 - All Passes

Search period start: 04 April 2026 00:00
Search period end: 14 April 2026 00:00
Orbit: 429 x 539 km, 50.2° (Epoch: 29 March)

Date Brightness Start Highest point End Pass type
(mag) Time Alt. Az. Time Alt. Az. Time Alt. Az.
4 Apr - 03:20:02 10° NNW 03:23:12 27° NE 03:26:16 10° E visible
4 Apr - 04:58:31 10° WNW 05:01:25 23° SW 05:04:14 10° S visible
4 Apr - 18:37:09 10° SSE 18:39:22 14° SE 18:41:35 10° E daylight
4 Apr - 20:13:25 10° WSW 20:17:24 57° NW 20:21:20 10° NE visible
4 Apr - 21:55:31 10° NW 21:56:25 11° NNW 21:57:20 10° NNW visible
5 Apr - 02:53:02 10° NNW 02:56:08 26° NE 02:59:09 10° E visible
5 Apr - 04:31:23 10° WNW 04:34:24 26° SW 04:37:20 10° S visible
5 Apr - 18:10:23 10° SSE 18:12:20 13° SE 18:14:15 10° E daylight
5 Apr - 19:46:18 10° WSW 19:50:19 62° NW 19:54:18 10° NE visible
5 Apr - 21:27:59 10° NW 21:29:17 11° NNW 21:30:36 10° N visible
6 Apr - 02:26:00 10° NNW 02:29:04 24° NE 02:32:01 10° E night (unlit)
6 Apr - 04:04:13 10° WNW 04:07:21 29° SW 04:10:24 10° SSE visible
6 Apr - 17:43:40 10° SSE 17:45:15 12° SE 17:46:49 10° ESE daylight
6 Apr - 19:19:09 10° SW 19:23:13 68° NW 19:27:12 10° NE visible
6 Apr - 21:00:32 10° NW 21:02:09 12° NNW 21:03:44 10° N visible
7 Apr - 01:58:56 10° NNW 02:01:56 23° NE 02:04:50 10° E night (unlit)
7 Apr - 03:37:01 10° WNW 03:40:17 32° SW 03:43:26 10° SSE night (unlit)
7 Apr - 17:17:05 10° SE 17:18:08 11° SE 17:19:11 10° ESE daylight
7 Apr - 18:52:00 10° SW 18:56:04 74° NW 19:00:06 10° NE visible
7 Apr - 20:33:07 10° NW 20:34:57 13° NNW 20:36:48 10° N visible
8 Apr - 01:31:50 10° NNW 01:34:47 21° NNE 01:37:38 10° E night (unlit)
8 Apr - 03:09:49 10° WNW 03:13:10 35° SW 03:16:25 10° SSE night (unlit)
8 Apr - 18:24:49 10° SW 18:28:54 81° NW 18:32:57 10° NE daylight
8 Apr - 20:05:41 10° WNW 20:07:45 14° NNW 20:09:48 10° N visible
9 Apr - 01:04:44 10° NNW 01:07:35 20° NNE 01:10:22 10° E night (unlit)
9 Apr - 02:42:35 10° WNW 02:46:02 39° SW 02:49:21 10° SSE night (unlit)
9 Apr - 17:57:37 10° SW 18:01:42 88° NW 18:05:45 10° NE daylight
9 Apr - 19:38:15 10° WNW 19:40:31 14° NNW 19:42:46 10° N visible
10 Apr - 00:37:35 10° NNW 00:40:22 19° NNE 00:43:04 10° E night (unlit)
10 Apr - 02:15:20 10° WNW 02:18:52 44° SW 02:22:15 10° SSE night (unlit)
10 Apr - 17:30:24 10° SW 17:34:28 84° SE 17:38:32 10° NE daylight
10 Apr - 19:10:48 10° WNW 19:13:15 15° NNW 19:15:41 10° N visible
11 Apr - 00:10:25 10° NNW 00:13:07 18° NNE 00:15:45 10° ENE night (unlit)
11 Apr - 01:48:03 10° WNW 01:51:40 49° SW 01:55:07 10° SSE night (unlit)
11 Apr - 17:03:09 10° SW 17:07:13 77° SE 17:11:17 10° NE daylight
11 Apr - 18:43:21 10° WNW 18:45:57 16° NNW 18:48:32 10° N visible
11 Apr - 23:43:13 10° NNW 23:45:50 17° NNE 23:48:23 10° ENE night (unlit)
12 Apr - 01:20:46 10° NW 01:24:26 55° SW 01:27:57 10° SSE night (unlit)
12 Apr - 16:35:54 10° SW 16:39:56 70° SE 16:44:00 10° NE daylight
12 Apr - 18:15:53 10° WNW 18:18:38 17° NNW 18:21:22 10° NNE daylight
12 Apr - 23:16:00 10° N 23:18:31 16° NNE 23:20:58 10° ENE night (unlit)
13 Apr - 00:53:26 10° NW 00:57:10 62° SW 01:00:44 10° SE night (unlit)
13 Apr - 16:08:37 10° SW 16:12:37 63° SE 16:16:40 10° NE daylight
13 Apr - 17:48:24 10° WNW 17:51:17 18° NNW 17:54:09 10° NNE daylight
13 Apr - 22:48:46 10° N 22:51:10 16° NNE 22:53:31 10° ENE night (unlit)
